Weather History for Farmington, MO

Change the Weather History Date:

Thursday, November 22, 2012

  Actual Average Record
Temperature  
Mean Temperature 54 °F -  
Max Temperature 64 °F 51 °F 66 °F (2010)
Min Temperature 44 °F 34 °F 21 °F (2000)
Degree Days  
Heating Degree Days 11    
Growing Degree Days 4 (Base 50)    
Moisture  
Dew Point 45 °F    
Average Humidity 75    
Maximum Humidity 94    
Minimum Humidity 45    
Precipitation  
Precipitation 0.33 in - - ()
Sea Level Pressure  
Sea Level Pressure 30.10 in    
Wind  
Wind Speed 9 mph (SSW)    
Max Wind Speed 21 mph    
Max Gust Speed 26 mph    
Visibility 7 miles    
Events      
Averages and records for this station are not official NWS values.
T = Trace of Precipitation, MM = Missing Value Source: NWS Daily Summary

Daily Weather History Graph

Daily Weather History Graph

Search for Another Location

Airport:

Trip Planner

Search our weather history database for the weather conditions in past years. The results will help you decide how hot, cold, wet, or windy it might be!

Date:

Astronomy

Nov. 22, 2012 Rise Set
Actual Time 6:49 AM CST 4:45 PM CST
Civil Twilight 6:21 AM CST 5:14 PM CST
Nautical Twilight 5:49 AM CST 5:46 PM CST
Astronomical Twilight 5:17 AM CST 6:17 PM CST
Moon 1:26 PM CST (11/22) 1:15 AM CST (11/22)
Length of Visible Light 10h 53m
Length of Day
9h 56m
Waxing Gibbous, 71% of the Moon is Illuminated
Nov 22
Waxing Gibbous
Nov 28
Full
Dec 6
Last Quarter
Dec 13
New
Dec 19
First Quarter

Hourly Weather History & Observations

Time (CST) Temp. Windchill Dew Point Humidity Pressure Visibility Wind Dir Wind Speed Gust Speed Precip Events Conditions
12:15 AM 46.4 °F 43.5 °F 42.8 °F 87% 30.17 in 7.0 mi South 5.8 mph - N/A   Clear
12:35 AM 46.4 °F 42.9 °F 42.8 °F 87% 30.17 in 6.0 mi South 6.9 mph - N/A   Clear
12:55 AM 44.6 °F 40.7 °F 42.8 °F 93% 30.17 in 6.0 mi South 6.9 mph - N/A   Clear
1:15 AM 44.6 °F 41.4 °F 41.0 °F 87% 30.17 in 5.0 mi South 5.8 mph - N/A   Clear
1:35 AM 44.6 °F 40.7 °F 41.0 °F 87% 30.17 in 6.0 mi South 6.9 mph - N/A   Clear
1:55 AM 44.6 °F 41.4 °F 42.8 °F 93% 30.17 in 5.0 mi South 5.8 mph - N/A   Clear
2:15 AM 44.6 °F 40.7 °F 42.8 °F 93% 30.17 in 6.0 mi South 6.9 mph - N/A   Clear
2:35 AM 46.4 °F 42.4 °F 42.8 °F 87% 30.17 in 6.0 mi South 8.1 mph - N/A   Clear
2:55 AM 46.4 °F 42.4 °F 42.8 °F 87% 30.17 in 5.0 mi South 8.1 mph - N/A   Clear
3:15 AM 46.4 °F 42.4 °F 42.8 °F 87% 30.17 in 6.0 mi South 8.1 mph - N/A   Clear
3:35 AM 44.6 °F 40.2 °F 41.0 °F 87% 30.16 in 5.0 mi South 8.1 mph - N/A   Clear
3:55 AM 46.4 °F 42.4 °F 42.8 °F 87% 30.16 in 5.0 mi South 8.1 mph - N/A   Clear
4:15 AM 44.6 °F 41.4 °F 42.8 °F 93% 30.15 in 5.0 mi South 5.8 mph - N/A   Clear
4:35 AM 44.6 °F 40.2 °F 41.0 °F 87% 30.15 in 5.0 mi South 8.1 mph - N/A   Clear
4:55 AM 46.4 °F 41.5 °F 42.8 °F 87% 30.15 in 5.0 mi South 10.4 mph - N/A   Clear
5:15 AM 46.4 °F 42.9 °F 42.8 °F 87% 30.15 in 5.0 mi South 6.9 mph - N/A   Clear
5:35 AM 46.4 °F 41.5 °F 42.8 °F 87% 30.15 in 5.0 mi South 10.4 mph - N/A   Clear
5:55 AM 46.4 °F 41.5 °F 42.8 °F 87% 30.14 in 5.0 mi South 10.4 mph - N/A   Clear
6:15 AM 44.6 °F 38.8 °F 42.8 °F 93% 30.14 in 4.0 mi South 11.5 mph - N/A   Clear
6:35 AM 44.6 °F 39.2 °F 42.8 °F 93% 30.14 in 4.0 mi South 10.4 mph - N/A   Clear
6:55 AM 44.6 °F 39.2 °F 42.8 °F 93% 30.14 in 3.0 mi South 10.4 mph - N/A   Clear
7:15 AM 44.6 °F 39.7 °F 41.0 °F 87% 30.14 in 2.5 mi SSE 9.2 mph - N/A   Clear
7:35 AM 44.6 °F 38.8 °F 42.8 °F 93% 30.14 in 3.0 mi South 11.5 mph - N/A   Clear
7:55 AM 46.4 °F 41.5 °F 44.6 °F 93% 30.14 in 3.0 mi South 10.4 mph - N/A   Clear
8:15 AM 48.2 °F - 44.6 °F 87% 30.14 in 5.0 mi South 11.5 mph - N/A   Clear
8:35 AM 48.2 °F - 44.6 °F 87% 30.14 in 5.0 mi South 8.1 mph - N/A   Clear
8:55 AM 51.8 °F - 46.4 °F 82% 30.14 in 6.0 mi South 10.4 mph - N/A   Clear
9:15 AM 53.6 °F - 46.4 °F 77% 30.15 in 7.0 mi South 10.4 mph - N/A   Clear
9:35 AM 53.6 °F - 46.4 °F 77% 30.14 in 9.0 mi South 12.7 mph - N/A   Clear
9:55 AM 55.4 °F - 46.4 °F 72% 30.14 in 10.0 mi SSW 15.0 mph 18.4 mph N/A   Clear
10:15 AM 55.4 °F - 46.4 °F 72% 30.13 in 10.0 mi SSW 18.4 mph 21.9 mph N/A   Clear
10:35 AM 55.4 °F - 44.6 °F 67% 30.13 in 10.0 mi South 17.3 mph 23.0 mph N/A   Clear
10:55 AM 59.0 °F - 46.4 °F 63% 30.13 in 10.0 mi South 12.7 mph 17.3 mph N/A   Clear
11:15 AM 62.6 °F - 44.6 °F 52% 30.11 in 10.0 mi SSW 20.7 mph 26.5 mph N/A   Clear
11:35 AM 62.6 °F - 44.6 °F 52% 30.09 in 10.0 mi SSW 15.0 mph 23.0 mph N/A   Clear
11:55 AM 60.8 °F - 44.6 °F 55% 30.09 in 10.0 mi South 17.3 mph 21.9 mph N/A   Clear
12:15 PM 60.8 °F - 46.4 °F 59% 30.08 in 10.0 mi South 15.0 mph - N/A   Clear
12:35 PM 62.6 °F - 46.4 °F 55% 30.07 in 10.0 mi South 13.8 mph - N/A   Clear
12:55 PM 62.6 °F - 46.4 °F 55% 30.06 in 10.0 mi South 11.5 mph - N/A   Clear
1:15 PM 62.6 °F - 46.4 °F 55% 30.05 in 10.0 mi South 10.4 mph - N/A   Clear
1:35 PM 64.4 °F - 48.2 °F 56% 30.05 in 10.0 mi South 10.4 mph - N/A   Clear
1:55 PM 64.4 °F - 42.8 °F 45% 30.05 in 10.0 mi SSW 15.0 mph 18.4 mph N/A   Clear
2:15 PM 64.4 °F - 44.6 °F 49% 30.03 in 10.0 mi SSW 12.7 mph - N/A   Clear
2:35 PM 64.4 °F - 42.8 °F 45% 30.03 in 10.0 mi South 13.8 mph - N/A   Clear
2:55 PM 62.6 °F - 42.8 °F 48% 30.03 in 10.0 mi SSW 13.8 mph 20.7 mph N/A   Clear
3:15 PM 62.6 °F - 42.8 °F 48% 30.03 in 10.0 mi South 13.8 mph 20.7 mph N/A   Clear
3:35 PM 60.8 °F - 44.6 °F 55% 30.02 in 10.0 mi South 11.5 mph - N/A   Clear
3:55 PM 60.8 °F - 44.6 °F 55% 30.02 in 10.0 mi South 10.4 mph 18.4 mph N/A   Clear
4:15 PM 59.0 °F - 44.6 °F 59% 30.02 in 10.0 mi South 11.5 mph - N/A   Clear
4:35 PM 59.0 °F - 44.6 °F 59% 30.02 in 10.0 mi South 11.5 mph - N/A   Clear
4:55 PM 57.2 °F - 44.6 °F 63% 30.02 in 10.0 mi South 11.5 mph - N/A   Clear
5:15 PM 57.2 °F - 44.6 °F 63% 30.02 in 10.0 mi South 12.7 mph 16.1 mph N/A   Clear
5:35 PM 57.2 °F - 44.6 °F 63% 30.01 in 10.0 mi South 15.0 mph 19.6 mph N/A   Clear
5:55 PM 57.2 °F - 46.4 °F 67% 30.02 in 10.0 mi South 13.8 mph - N/A   Clear
6:15 PM 59.0 °F - 46.4 °F 63% 30.03 in 10.0 mi South 10.4 mph 18.4 mph N/A   Mostly Cloudy
6:35 PM 57.2 °F - 46.4 °F 67% 30.02 in 10.0 mi South 12.7 mph - N/A   Overcast
6:55 PM 57.2 °F - 46.4 °F 67% 30.03 in 10.0 mi South 13.8 mph - N/A   Mostly Cloudy
7:15 PM 57.2 °F - 46.4 °F 67% 30.04 in 10.0 mi SSW 8.1 mph - N/A   Mostly Cloudy
7:35 PM 57.2 °F - 46.4 °F 67% 30.07 in 10.0 mi West 6.9 mph - N/A   Overcast
7:55 PM 57.2 °F - 46.4 °F 67% 30.08 in 10.0 mi WSW 5.8 mph - N/A   Overcast
8:15 PM 57.2 °F - 48.2 °F 72% 30.08 in 10.0 mi SSW 8.1 mph - N/A   Overcast
8:35 PM 57.2 °F - 46.4 °F 67% 30.09 in 10.0 mi SW 5.8 mph - N/A   Overcast
8:55 PM 55.4 °F - 48.2 °F 77% 30.09 in 5.0 mi WSW 5.8 mph - 0.05 in   Overcast
9:15 PM 53.6 °F - 48.2 °F 82% 30.09 in 5.0 mi SW 8.1 mph - 0.12 in   Overcast
9:35 PM 53.6 °F - 50.0 °F 88% 30.09 in 8.0 mi SW 6.9 mph - 0.22 in   Overcast
9:55 PM 53.6 °F - 50.0 °F 88% 30.08 in 8.0 mi SSW 11.5 mph - 0.26 in   Overcast
10:15 PM 53.6 °F - 50.0 °F 88% 30.08 in 5.0 mi SSW 9.2 mph - 0.02 in   Overcast
10:35 PM 53.6 °F - 50.0 °F 88% 30.08 in 3.0 mi SW 10.4 mph - 0.02 in   Overcast
10:55 PM 53.6 °F - 50.0 °F 88% 30.08 in 2.5 mi SW 6.9 mph - 0.02 in   Overcast
11:15 PM 53.6 °F - 51.8 °F 94% 30.09 in 5.0 mi WSW 4.6 mph - N/A   Overcast
11:35 PM 53.6 °F - 51.8 °F 94% 30.10 in 5.0 mi WSW 9.2 mph - N/A   Overcast
11:55 PM 55.4 °F - 51.8 °F 88% 30.10 in 10.0 mi West 9.2 mph 17.3 mph N/A   Overcast